Radioactive Concentration measured by Seawater Radiation Monitor near Fukushima Daiichi Nuclear Power Station
Date,Time,Cs137(Bq/L),Cs134(Bq/L),Total β(Bq/L)
2022/06/11,00:00,ND,ND,27
2022/06/11,00:10,ND,ND,27
2022/06/11,00:20,ND,ND,27
2022/06/11,00:30,ND,ND,23
2022/06/11,00:40,ND,ND,23
2022/06/11,00:50,ND,ND,22
2022/06/11,01:00,ND,ND,25
2022/06/11,01:10,ND,ND,24
2022/06/11,01:20,ND,ND,25
2022/06/11,01:30,ND,ND,28
2022/06/11,01:40,ND,ND,27
2022/06/11,01:50,ND,ND,27
2022/06/11,02:00,ND,ND,25
2022/06/11,02:10,ND,ND,28
2022/06/11,02:20,ND,ND,27
2022/06/11,02:30,ND,ND,28
2022/06/11,02:40,ND,ND,26
2022/06/11,02:50,ND,ND,28
2022/06/11,03:00,ND,ND,29
2022/06/11,03:10,ND,ND,25
2022/06/11,03:20,ND,ND,28
2022/06/11,03:30,ND,ND,26
2022/06/11,03:40,ND,ND,26
2022/06/11,03:50,ND,ND,26
2022/06/11,04:00,ND,ND,24
2022/06/11,04:10,ND,ND,27
2022/06/11,04:20,ND,ND,25
2022/06/11,04:30,ND,ND,24
2022/06/11,04:40,ND,ND,26
2022/06/11,04:50,ND,ND,24
2022/06/11,05:00,ND,ND,24
2022/06/11,05:10,ND,ND,21
2022/06/11,05:20,ND,ND,23
2022/06/11,05:30,ND,ND,23
2022/06/11,05:40,ND,ND,22
2022/06/11,05:50,ND,ND,24
2022/06/11,06:00,0.048,ND,26
2022/06/11,06:10,0.052,ND,27
2022/06/11,06:20,0.049,ND,25
2022/06/11,06:30,ND,ND,25
2022/06/11,06:40,ND,ND,27
2022/06/11,06:50,0.049,ND,23
2022/06/11,07:00,0.058,ND,20
2022/06/11,07:10,ND,ND,22
2022/06/11,07:20,ND,ND,22
2022/06/11,07:30,ND,ND,21
2022/06/11,07:40,ND,ND,22
2022/06/11,07:50,ND,ND,25
2022/06/11,08:00,ND,ND,27
2022/06/11,08:10,ND,ND,26
2022/06/11,08:20,ND,ND,26
2022/06/11,08:30,ND,ND,26
2022/06/11,08:40,0.055,ND,25
2022/06/11,08:50,ND,ND,24
2022/06/11,09:00,ND,ND,25
2022/06/11,09:10,ND,ND,27
2022/06/11,09:20,ND,ND,29
2022/06/11,09:30,ND,ND,29
2022/06/11,09:40,ND,ND,28
2022/06/11,09:50,0.052,ND,31
2022/06/11,10:00,ND,ND,32
2022/06/11,10:10,0.058,ND,30
2022/06/11,10:20,ND,ND,31
2022/06/11,10:30,ND,ND,32
2022/06/11,10:40,ND,ND,31
2022/06/11,10:50,ND,ND,27
2022/06/11,11:00,ND,ND,27
2022/06/11,11:10,ND,ND,28
2022/06/11,11:20,ND,ND,27
2022/06/11,11:30,ND,ND,27
2022/06/11,11:40,ND,ND,30
2022/06/11,11:50,ND,ND,33
2022/06/11,12:00,ND,ND,32
2022/06/11,12:10,ND,ND,32
2022/06/11,12:20,ND,ND,31
2022/06/11,12:30,ND,ND,33
2022/06/11,12:40,ND,ND,31
2022/06/11,12:50,ND,ND,30
2022/06/11,13:00,ND,ND,30
2022/06/11,13:10,ND,ND,32
2022/06/11,13:20,ND,ND,32
2022/06/11,13:30,ND,ND,28
2022/06/11,13:40,ND,ND,32
2022/06/11,13:50,ND,ND,32
2022/06/11,14:00,ND,ND,30
2022/06/11,14:10,ND,ND,29
2022/06/11,14:20,ND,ND,28
2022/06/11,14:30,ND,ND,29
2022/06/11,14:40,ND,ND,28
2022/06/11,14:50,ND,ND,27
2022/06/11,15:00,ND,ND,29
2022/06/11,15:10,ND,ND,28
2022/06/11,15:20,ND,ND,29
2022/06/11,15:30,ND,ND,28
2022/06/11,15:40,ND,ND,26
2022/06/11,15:50,ND,ND,23
2022/06/11,16:00,ND,ND,22
2022/06/11,16:10,ND,ND,24
2022/06/11,16:20,ND,ND,24
2022/06/11,16:30,ND,ND,22
2022/06/11,16:40,ND,ND,23
2022/06/11,16:50,ND,ND,25
2022/06/11,17:00,ND,ND,24
2022/06/11,17:10,ND,ND,24
2022/06/11,17:20,ND,ND,23
2022/06/11,17:30,ND,ND,24
2022/06/11,17:40,ND,ND,24
2022/06/11,17:50,ND,ND,24
2022/06/11,18:00,ND,ND,23
2022/06/11,18:10,ND,ND,23
2022/06/11,18:20,ND,ND,25
2022/06/11,18:30,ND,ND,23
2022/06/11,18:40,ND,ND,24
2022/06/11,18:50,ND,ND,26
2022/06/11,19:00,ND,ND,28
2022/06/11,19:10,ND,ND,29
2022/06/11,19:20,ND,ND,27
2022/06/11,19:30,ND,ND,30
2022/06/11,19:40,ND,ND,27
2022/06/11,19:50,ND,ND,28
2022/06/11,20:00,ND,ND,26
2022/06/11,20:10,ND,ND,24
2022/06/11,20:20,ND,ND,24
2022/06/11,20:30,ND,ND,22
2022/06/11,20:40,ND,ND,24
2022/06/11,20:50,ND,ND,22
2022/06/11,21:00,ND,ND,23
2022/06/11,21:10,ND,ND,21
2022/06/11,21:20,ND,ND,22
2022/06/11,21:30,ND,ND,23
2022/06/11,21:40,ND,ND,21
2022/06/11,21:50,ND,ND,22
2022/06/11,22:00,ND,ND,21
2022/06/11,22:10,ND,ND,26
2022/06/11,22:20,ND,ND,26
2022/06/11,22:30,ND,ND,29
2022/06/11,22:40,ND,ND,31
2022/06/11,22:50,ND,ND,30
2022/06/11,23:00,ND,ND,34
2022/06/11,23:10,ND,ND,33
2022/06/11,23:20,ND,ND,31
2022/06/11,23:30,ND,ND,29
2022/06/11,23:40,ND,ND,30
2022/06/11,23:50,ND,ND,30
